Location: Newark
(51.0089°N, 21.5817°E)
Time: 11:49:28
(UTC+00:00)

STARS - Pass Details

Date: 26 February 2020
Orbit: 625 x 639 km, 98.3° (Epoch: 28 March)

Event Time Altitude Azimuth Distance (km) Brightness Sun altitude
Rises 04:12:07 0° 103° (ESE) 2,912 ? -12.4°
Reaches altitude 10° 04:15:55 10° 69° (ENE) 2,008 ? -11.8°
Maximum altitude 04:17:09 11° 52° (NE) 1,937 ? -11.6°
Drops below altitude 10° 04:18:23 10° 36° (NE) 2,011 ? -11.4°
Sets 04:22:12 0° 1° (N) 2,923 ? -10.8°
